Content
SEND FEEDBACK

Daily
Averages
Monthly
Summary
United States of America

ASATDAS, GUAM


Home > North America > United States > Guam
Elevation: 612 feet     Latitude: 13 35N     Longitude: 144 56E

WEATHER
 
SELECT A DAY
Number of Records: 215,541;   Date Range: 1/1/95 - 12/18/14
 
SHARE

PRINT THIS DATA

[ ← Previous Day ]
WEATHER ALMANAC - JUNE 24, 2013
[ Next Day → ]
[ °C ]   °F
We're sorry. There is no daily almanac available for Asatdas, Guam on June 24, 2013.
WEATHER BY HOUR - JUNE 24, 2013
[ °C ]   °F
Local TimeTemperatureDewpointHumidityBarometerVisibilityWind DirectionWind SpeedGust SpeedPrecipitationEventsConditions
1:54 AM82.0 °F77.0 °F85 %29.89 in10.0 miEast (90°)6.9 mphClear
2:54 AM82.0 °F77.0 °F85 %29.87 in10.0 miEast (90°)5.8 mphMostly Cloudy
3:08 AM82.4 °F77.0 °F84 %29.89 in10.0 miEast (80°)5.8 mphMostly Cloudy
3:15 AM82.4 °F77.0 °F84 %29.89 in10.0 miEast (90°)6.9 mphScattered Clouds
3:54 AM82.9 °F75.9 °F79 %29.86 in10.0 miEast (80°)9.2 mphPartly Cloudy
4:54 AM82.0 °F75.9 °F82 %29.87 in10.0 miEast (80°)6.9 mphClear
5:54 AM82.9 °F75.9 °F79 %29.87 in10.0 miEast (80°)8.1 mphPartly Cloudy
6:54 AM82.9 °F75.9 °F79 %29.88 in10.0 miEast (80°)10.4 mphScattered Clouds
7:54 AM84.9 °F75.9 °F74 %29.89 in10.0 miEast (80°)11.5 mphClear
8:33 AM86.0 °F75.2 °F70 %29.92 in10.0 miEast (90°)13.8 mph19.6 mphMostly Cloudy
8:54 AM86.0 °F75.9 °F72 %29.90 in10.0 miEast (80°)15.0 mph20.7 mphScattered Clouds
9:54 AM87.1 °F75.9 °F69 %29.90 in10.0 miEast (100°)15.0 mph23.0 mphScattered Clouds
10:54 AM88.0 °F75.9 °F67 %29.90 in10.0 miEast (100°)11.5 mph24.2 mphScattered Clouds
11:01 AM87.8 °F75.2 °F66 %29.92 in10.0 miESE (110°)18.4 mph24.2 mphMostly Cloudy
11:11 AM87.8 °F73.4 °F62 %29.92 in10.0 miEast (90°)15.0 mph25.3 mphScattered Clouds
11:54 AM90.0 °F75.0 °F61 %29.89 in10.0 miEast (100°)13.8 mph24.2 mphPartly Cloudy
12:54 PM89.1 °F75.0 °F63 %29.88 in10.0 miESE (110°)16.1 mph24.2 mphPartly Cloudy
1:28 PM84.2 °F78.8 °F84 %29.91 in7.0 miESE (110°)11.5 mph23.0 mph0.00 inRainLight Rain
1:35 PM86.0 °F78.8 °F79 %29.90 in10.0 miESE (120°)12.7 mph19.6 mph0.00 inPartly Cloudy
1:54 PM87.1 °F75.9 °F69 %29.87 in10.0 miESE (110°)12.7 mph20.7 mph0.00 inPartly Cloudy
2:54 PM89.1 °F75.9 °F65 %29.86 in10.0 miEast (100°)16.1 mph21.9 mphScattered Clouds
3:54 PM84.0 °F77.0 °F79 %29.85 in5.0 miESE (120°)9.2 mph26.5 mphRainLight Rain
4:54 PM84.9 °F78.1 °F80 %29.86 in9.0 miESE (110°)11.5 mph0.00 inMostly Cloudy
5:54 PM84.0 °F78.1 °F82 %29.86 in10.0 miESE (110°)8.1 mph0.03 inScattered Clouds
6:54 PM82.0 °F77.0 °F85 %29.88 in9.0 miEast (80°)11.5 mph0.00 inRainLight Rain
7:54 PM82.9 °F78.1 °F85 %29.89 in10.0 miESE (110°)5.8 mph0.00 inPartly Cloudy
8:35 PM84.2 °F77.0 °F79 %29.93 in10.0 miEast (100°)5.8 mphMostly Cloudy
8:54 PM84.0 °F77.0 °F79 %29.91 in10.0 miENE (70°)11.5 mphMostly Cloudy
9:09 PM82.4 °F75.2 °F79 %29.94 in10.0 miEast (80°)9.2 mphScattered Clouds
9:54 PM81.0 °F75.0 °F82 %29.91 in10.0 miEast (100°)5.8 mphPartly Cloudy
10:54 PM80.1 °F75.9 °F87 %29.93 in7.0 miEast (100°)4.6 mph0.07 inOvercast
11:54 PM82.0 °F77.0 °F85 %29.93 in10.0 miEast (100°)4.6 mph0.02 inPartly Cloudy
Hourly data recorded from PGUM, located miles away from Asatdas, Guam







STORIES FROM OUR PARTNERS